Location: Melbourne
(37.8170°S, 144.9670°E)
Time: 17:52:38
(UTC+11:00)

ISS - All Passes

Search period start: 28 November 2014 00:00
Search period end: 08 December 2014 00:00
Orbit: 407 x 417 km, 51.6° (Epoch: 27 November)

Date Brightness Start Highest point End Pass type
(mag) Time Alt. Az. Time Alt. Az. Time Alt. Az.
28 Nov - 11:34:01 10° NW 11:37:21 62° NE 11:40:44 10° ESE daylight
28 Nov - 13:11:44 10° WSW 13:14:17 19° SSW 13:16:49 10° SSE daylight
28 Nov - 16:28:59 10° S 16:30:03 11° SSE 16:31:06 10° SSE daylight
28 Nov - 18:04:14 10° SW 18:07:28 39° SE 18:10:40 10° ENE daylight
28 Nov - 19:41:21 10° W 19:43:55 20° NW 19:46:28 10° N daylight
29 Nov - 10:44:35 10° NNW 10:47:36 31° NE 10:50:40 10° ESE daylight
29 Nov - 12:21:16 10° W 12:24:15 28° SSW 12:27:16 10° SSE daylight
29 Nov - 17:14:36 10° SSW 17:17:29 25° SSE 17:20:21 10° E daylight
29 Nov - 18:51:02 10° WSW 18:54:13 38° NW 18:57:21 10° NNE daylight
30 Nov - 09:55:38 10° N 09:57:53 17° NE 10:00:10 10° E daylight
30 Nov - 11:31:00 10° WNW 11:34:16 46° SW 11:37:35 10° SE daylight
30 Nov - 13:10:15 10° SW 13:11:37 12° SSW 13:12:59 10° S daylight
30 Nov - 16:25:02 10° SSW 16:27:24 17° SSE 16:29:45 10° ESE daylight
30 Nov - 18:00:59 10° SW 18:04:24 76° NW 18:07:45 10° NE daylight
01 Dec - 10:40:57 10° NW 10:44:20 85° SW 10:47:45 10° SE daylight
01 Dec - 12:19:17 10° WSW 12:21:25 16° SSW 12:23:34 10° SSE daylight
01 Dec - 15:35:33 10° S 15:37:13 13° SSE 15:38:53 10° SE daylight
01 Dec - 17:11:06 10° SW 17:14:28 57° SE 17:17:48 10° ENE daylight
01 Dec - 18:49:00 10° W 18:50:45 14° NW 18:52:30 10° NNW daylight
02 Dec - 09:51:11 10° NNW 09:54:26 48° NE 09:57:44 10° ESE daylight
02 Dec - 11:28:33 10° W 11:31:15 22° SSW 11:33:58 10° SSE daylight
02 Dec - 14:46:26 10° S 14:46:57 10° SSE 14:47:29 10° SSE daylight
02 Dec - 16:21:19 10° SW 16:24:27 33° SSE 16:27:32 10° E daylight
02 Dec - 17:58:08 10° WSW 18:00:59 25° NW 18:03:48 10° N daylight
03 Dec - 09:01:46 10° N 09:04:35 25° NE 09:07:25 10° ESE daylight
03 Dec - 10:38:01 10° W 10:41:07 33° SSW 10:44:15 10° SE daylight
03 Dec - 12:18:05 10° SSW 12:18:37 10° SSW 12:19:08 10° S daylight
03 Dec - 15:31:35 10° SSW 15:34:18 22° SSE 15:37:00 10° E daylight
03 Dec - 17:07:50 10° WSW 17:11:07 48° NW 17:14:23 10° NNE daylight
04 Dec - 08:13:02 10° NNE 08:14:46 14° NE 08:16:30 10° E daylight
04 Dec - 09:47:43 10° WNW 09:51:02 57° SW 09:54:24 10° SE daylight
04 Dec - 11:26:37 10° SW 11:28:17 13° SSW 11:29:57 10° S daylight
04 Dec - 14:41:56 10° SSW 14:44:04 16° SSE 14:46:12 10° ESE daylight
04 Dec - 16:17:44 10° SW 16:21:09 85° SE 16:24:31 10° NE daylight
05 Dec - 08:57:38 10° NW 09:01:00 76° NE 09:04:23 10° SE daylight
05 Dec - 10:35:37 10° WSW 10:37:59 17° SSW 10:40:21 10° SSE daylight
05 Dec - 13:52:24 10° S 13:53:44 12° SSE 13:55:05 10° SE daylight
05 Dec - 15:27:46 10° SW 15:31:04 45° SE 15:34:20 10° ENE daylight
05 Dec - 17:05:09 10° W 17:07:26 17° NW 17:09:42 10° N daylight
06 Dec - 08:07:52 10° NNW 08:11:00 37° NE 08:14:10 10° ESE daylight
06 Dec - 09:44:51 10° W 09:47:42 25° SSW 09:50:35 10° SSE daylight
06 Dec - 14:37:53 10° SSW 14:40:53 28° SSE 14:43:51 10° E daylight
06 Dec - 16:14:27 10° WSW 16:17:31 32° NW 16:20:33 10° NNE daylight
07 Dec - 07:18:31 10° N 07:21:02 20° NE 07:23:35 10° E daylight
07 Dec - 08:54:17 10° WNW 08:57:28 39° SW 09:00:42 10° SE daylight
07 Dec - 10:33:49 10° SSW 10:34:52 11° SSW 10:35:55 10° S daylight
07 Dec - 13:48:04 10° SSW 13:50:35 19° SSE 13:53:06 10° ESE daylight
07 Dec - 15:24:08 10° SW 15:27:30 63° NW 15:30:50 10° NE daylight
